Regional Weather Roundup
Issued by NWS

Home | Current Version | Previous Version | Graphics & Text | Print | Product List | Glossary On
Versions: 1 2 3 4 5 6 7 8 9 10 11 12 13 14 15 16 17 18 19 20 21 22 23 24 25 26 27 28 29 30 31 32 33 34 35 36 37 38 39 40 41 42 43 44 45 46 47 48 49 50
000
ASUS44 KMEG 260910
RWRTN
TENNESSEE HOURLY STATE WEATHER ROUNDUP
NATIONAL WEATHER SERVICE MEMPHIS TN
400 AM CDT TUE MAY 26 2015

TNZ002-004-019-021-049-052-054-088>092-261000-
WEST TENNESSEE

CITY           SKY/WX    TMP DP  RH WIND       PRES   REMARKS
MEMPHIS INTL   CLOUDY    71  68  90 SE12      29.93F FOG
NWS MEMPHIS      N/A     71 N/A N/A MISG        N/A
JACKSON        CLOUDY    71  65  81 S9G20     29.99F
DYERSBURG      CLOUDY    72  55  56 SE6       29.98R
PARIS          CLEAR     66  66 100 SE7       30.01S
LEXINGTON      PTCLDY    66  64  94 VRB5      30.02S
$$

TNZ008-025-027-028-033-062-065-066-261000-
NORTH MIDDLE TENNESSEE

CITY           SKY/WX    TMP DP  RH WIND       PRES   REMARKS
NASHVILLE      MOCLDY    66  64  93 S7        30.09S
CLARKSVILLE    PTCLDY    66  65  96 SE12      30.04F
SMYRNA         PTCLDY    64  64 100 SE3       30.10S
COOKEVILLE     CLEAR     66  64  94 S5        30.13S
CROSSVILLE     CLOUDY    67  63  87 VRB5      30.19R
$$

TNZ061-075-076-078-094-096-097-261000-
SOUTH MIDDLE TENNESSEE

CITY           SKY/WX    TMP DP  RH WIND       PRES   REMARKS
FAYETTEVILLE   CLEAR    N/A N/A N/A MISG      30.11S
TULLAHOMA      CLEAR     64  63  94 SE6       30.13S
WINCHESTER     CLEAR     66  64  94 E5        30.13S
MCMINNVILLE    CLEAR     68  66  94 CALM      30.13S
COLUMBIA       PTCLDY    66  64  94 S5        30.07S
SHELBYVILLE    CLEAR     66  64  94 SE5       30.12S
$$

TNZ017-018-042-046-047-261000-
NORTHEAST TENNESSEE

CITY           SKY/WX    TMP DP  RH WIND       PRES   REMARKS
TRI CITIES     CLOUDY    67  61  81 CALM      30.21F
ELIZABETHTON   DRIZZLE   63  61  94 CALM      30.23S
$$

TNZ012-013-036-069-073-074-261000-
CENTRAL EAST TENNESSEE

CITY           SKY/WX    TMP DP  RH WIND       PRES   REMARKS
KNOXVILLE      MOCLDY    65  63  93 CALM      30.17S
OAK RIDGE      MOCLDY    68  66  93 CALM      30.19S
GATLINBURG     SUNNY     64  64 100 CALM      30.17F
MORRISTOWN     SUNNY     66  64  94 CALM      30.20S
$$

TNZ083-085-099-261000-
SOUTHEAST TENNESSEE

CITY           SKY/WX    TMP DP  RH WIND       PRES   REMARKS
CHATTANOOGA    CLOUDY    68  66  93 CALM      30.16S
$$

SKY/WX REPORTED AS FAIR MEANS FEW OR NO CLOUDS BELOW
12 THOUSAND FEET.




USA.gov is the U.S. government's official web portal to all federal, state and local government web resources and services.